K6OUA-11 Weather Reports


time (UTC)temp
C
wind
direction
speed
KPH
gust
KPH
rain 1hr
cm
rain 24hr
cm
rain mn
cm
humidity
%
barometer
mb
20260504025924 14 279 9.7 11.3 0.00 0.00 0.00 81
20260504025723 14 271 6.4 6.4 0.00 0.00 0.00 81
20260504025522 14 281 8.0 6.4 0.00 0.00 0.00 81
20260504025320 14 291 1.6 11.3 0.00 0.00 0.00 81
20260504024916 14 302 1.6 11.3 0.00 0.00 0.00 81
20260504024714 14 255 1.6 11.3 0.00 0.00 0.00 81
20260504024512 14 260 0.0 11.3 0.00 0.00 0.00 81
20260504024310 14 239 0.0 11.3 0.00 0.00 0.00 80
20260504024109 14 292 1.6 11.3 0.00 0.00 0.00 80
20260504023907 14 271 11.3 11.3 0.00 0.00 0.00 80
20260504023705 14 277 3.2 16.1 0.00 0.00 0.00 80
20260504023501 14 303 6.4 16.1 0.00 0.00 0.00 80
20260504023301 14 277 9.7 16.1 0.00 0.00 0.00 80
20260504023059 14 264 8.0 16.1 0.00 0.00 0.00 80
20260504022857 14 264 12.9 16.1 0.00 0.00 0.00 80
20260504022655 14 247 8.0 16.1 0.00 0.00 0.00 80
20260504022453 14 270 9.7 16.1 0.00 0.00 0.00 80
20260504022049 14 253 8.0 9.7 0.00 0.00 0.00 80
20260504021848 14 285 6.4 9.7 0.00 0.00 0.00 80
20260504021646 15 203 0.0 14.5 0.00 0.00 0.00 80
20260504021442 15 272 4.8 14.5 0.00 0.00 0.00 80
20260504020636 14 234 8.0 20.9 0.00 0.00 0.00 80
20260504020232 14 257 11.3 14.5 0.00 0.00 0.00 80
20260504015627 15 270 9.7 19.3 0.00 0.00 0.00 78
20260504015423 15 274 9.7 19.3 0.00 0.00 0.00 78
20260504015223 15 255 11.3 8.0 0.00 0.00 0.00 78
20260504015021 15 264 1.6 8.0 0.00 0.00 0.00 78
20260504014819 15 202 0.0 11.3 0.00 0.00 0.00 77
20260504014617 15 271 3.2 11.3 0.00 0.00 0.00 77
20260504014415 15 278 4.8 11.3 0.00 0.00 0.00 77
20260504014213 15 268 6.4 19.3 0.00 0.00 0.00 77
20260504014011 15 209 3.2 19.3 0.00 0.00 0.00 76
20260504013810 15 264 12.9 20.9 0.00 0.00 0.00 76
20260504013607 15 257 6.4 20.9 0.00 0.00 0.00 76
20260504013406 15 255 14.5 20.9 0.00 0.00 0.00 75
20260504013000 15 267 14.5 16.1 0.00 0.00 0.00 73
20260504012558 15 225 1.6 16.1 0.00 0.00 0.00 72
20260504012356 15 250 4.8 16.1 0.00 0.00 0.00 71
20260504012155 15 260 1.6 16.1 0.00 0.00 0.00 70
20260504011951 15 279 6.4 16.1 0.00 0.00 0.00 70
20260504011751 15 222 3.2 19.3 0.00 0.00 0.00 69
20260504011549 15 268 4.8 19.3 0.00 0.00 0.00 69
20260504011347 15 248 14.5 19.3 0.00 0.00 0.00 69
20260504011145 15 251 9.7 16.1 0.00 0.00 0.00 69
20260504010941 15 250 12.9 16.1 0.00 0.00 0.00 68
20260504010741 16 296 6.4 19.3 0.00 0.00 0.00 68
20260504010539 16 293 14.5 19.3 0.00 0.00 0.00 67
20260504010337 16 26 1.6 19.3 0.00 0.00 0.00 67
20260504010135 16 246 1.6 16.1 0.00 0.00 0.00 67
20260504005933 16 246 17.7 16.1 0.00 0.00 0.00 67
20260504005732 16 275 8.0 16.1 0.00 0.00 0.00 67
20260504005530 16 284 4.8 16.1 0.00 0.00 0.00 67
20260504005328 16 267 8.0 16.1 0.00 0.00 0.00 67
20260504005126 16 254 11.3 16.1 0.00 0.00 0.00 67
20260504004924 16 282 4.8 16.1 0.00 0.00 0.00 67
20260504004722 16 243 6.4 16.1 0.00 0.00 0.00 67
20260504004521 16 275 3.2 16.1 0.00 0.00 0.00 67
20260504004318 16 282 3.2 16.1 0.00 0.00 0.00 67
20260504004116 16 257 9.7 16.1 0.00 0.00 0.00 66
20260504003915 16 261 8.0 16.1 0.00 0.00 0.00 66
20260504003712 17 295 3.2 14.5 0.00 0.00 0.00 67
20260504003509 17 267 9.7 14.5 0.00 0.00 0.00 66
20260504003309 17 243 1.6 12.9 0.00 0.00 0.00 66
20260504003107 17 274 6.4 12.9 0.00 0.00 0.00 66
20260504002905 17 274 6.4 12.9 0.00 0.00 0.00 65
20260504002703 17 278 8.0 12.9 0.00 0.00 0.00 66
20260504002501 17 264 3.2 12.9 0.00 0.00 0.00 66
20260504002259 17 240 4.8 11.3 0.00 0.00 0.00 65
20260504002057 17 272 1.6 11.3 0.00 0.00 0.00 65
20260504001653 17 289 8.0 12.9 0.00 0.00 0.00 65
20260504001452 17 282 1.6 12.9 0.00 0.00 0.00 65
20260504001248 17 274 6.4 16.1 0.00 0.00 0.00 65
20260504001048 17 274 8.0 16.1 0.00 0.00 0.00 64
20260504000846 17 271 8.0 16.1 0.00 0.00 0.00 64
20260504000644 17 265 4.8 12.9 0.00 0.00 0.00 64
20260504000442 17 270 6.4 12.9 0.00 0.00 0.00 64
20260504000241 17 288 6.4 12.9 0.00 0.00 0.00 64
20260503235836 17 264 8.0 12.9 0.00 0.00 0.00 64
20260503235634 17 264 9.7 12.9 0.00 0.00 0.00 65
20260503235431 17 277 8.0 12.9 0.00 0.00 0.00 64
20260503235231 17 258 8.0 14.5 0.00 0.00 0.00 66
20260503235029 17 286 8.0 14.5 0.00 0.00 0.00 65
20260503234827 17 274 6.4 14.5 0.00 0.00 0.00 66
20260503234625 17 286 6.4 14.5 0.00 0.00 0.00 65
20260503234423 17 272 12.9 14.5 0.00 0.00 0.00 64
20260503234221 17 254 14.5 11.3 0.00 0.00 0.00 65
20260503234019 17 244 1.6 11.3 0.00 0.00 0.00 65
20260503233818 17 270 6.4 17.7 0.00 0.00 0.00 66
20260503233616 17 253 3.2 17.7 0.00 0.00 0.00 66
20260503233414 17 202 0.0 17.7 0.00 0.00 0.00 65
20260503233212 17 264 17.7 12.9 0.00 0.00 0.00 65
20260503233008 17 262 12.9 12.9 0.00 0.00 0.00 65
20260503232808 17 262 6.4 14.5 0.00 0.00 0.00 64
20260503232606 17 271 9.7 14.5 0.00 0.00 0.00 65
20260503232202 17 262 11.3 14.5 0.00 0.00 0.00 65
20260503232000 17 292 6.4 14.5 0.00 0.00 0.00 66
20260503231758 17 274 9.7 16.1 0.00 0.00 0.00 66
20260503231555 17 251 9.7 16.1 0.00 0.00 0.00 65
20260503231356 17 268 1.6 16.1 0.00 0.00 0.00 66
20260503231153 17 282 4.8 16.1 0.00 0.00 0.00 65
20260503230951 17 271 9.7 16.1 0.00 0.00 0.00 65
20260503230547 17 284 9.7 14.5 0.00 0.00 0.00 64
20260503230345 17 298 8.0 14.5 0.00 0.00 0.00 65
20260503230143 17 270 3.2 17.7 0.00 0.00 0.00 63
20260503225941 17 226 3.2 17.7 0.00 0.00 0.00 64
20260503225739 17 260 14.5 17.7 0.00 0.00 0.00 63
20260503225537 17 274 9.7 17.7 0.00 0.00 0.00 63
20260503225334 17 270 14.5 17.7 0.00 0.00 0.00 63
20260503225134 17 265 14.5 14.5 0.00 0.00 0.00 62
20260503224930 17 248 1.6 14.5 0.00 0.00 0.00 64
20260503224732 17 292 4.8 17.7 0.00 0.00 0.00 64
20260503224526 17 203 1.6 17.7 0.00 0.00 0.00 63
20260503224123 17 243 12.9 8.0 0.00 0.00 0.00 63
20260503223719 17 293 4.8 17.7 0.00 0.00 0.00 64
20260503223517 17 291 3.2 17.7 0.00 0.00 0.00 63
20260503223315 17 282 8.0 16.1 0.00 0.00 0.00 64
20260503223115 17 289 8.0 16.1 0.00 0.00 0.00 64
20260503222911 17 270 12.9 16.1 0.00 0.00 0.00 64
20260503222709 17 272 12.9 17.7 0.00 0.00 0.00 64
20260503222507 17 243 1.6 17.7 0.00 0.00 0.00 65
20260503222305 17 298 8.0 12.9 0.00 0.00 0.00 64
20260503221902 17 278 6.4 12.9 0.00 0.00 0.00 65
20260503221700 17 281 12.9 12.9 0.00 0.00 0.00 65
20260503221457 17 281 11.3 12.9 0.00 0.00 0.00 65
20260503221256 17 257 6.4 12.9 0.00 0.00 0.00 66
20260503221056 16 302 1.6 12.9 0.00 0.00 0.00 67
20260503220854 16 240 0.0 12.9 0.00 0.00 0.00 66
20260503220650 16 258 9.7 12.9 0.00 0.00 0.00 67
20260503220248 16 216 0.0 16.1 0.00 0.00 0.00 67
20260503220046 16 288 6.4 16.1 0.00 0.00 0.00 66
20260503215844 16 292 9.7 16.1 0.00 0.00 0.00 66
20260503215642 16 270 9.7 11.3 0.00 0.00 0.00 66
20260503215440 16 277 9.7 11.3 0.00 0.00 0.00 68
20260503215237 16 284 0.0 12.9 0.00 0.00 0.00 68
20260503215037 16 251 1.6 12.9 0.00 0.00 0.00 68
20260503214834 16 272 11.3 12.9 0.00 0.00 0.00 68
20260503214633 16 262 8.0 14.5 0.00 0.00 0.00 69
20260503214431 16 278 8.0 14.5 0.00 0.00 0.00 69
20260503214229 16 279 6.4 14.5 0.00 0.00 0.00 70
20260503214027 16 267 11.3 14.5 0.00 0.00 0.00 69
20260503213827 16 268 1.6 14.5 0.00 0.00 0.00 71
20260503213623 16 296 8.0 17.7 0.00 0.00 0.00 70
20260503213421 16 267 6.4 17.7 0.00 0.00 0.00 71
20260503213220 15 261 14.5 17.7 0.00 0.00 0.00 70
20260503213018 16 262 11.3 17.7 0.00 0.00 0.00 71
20260503212816 16 247 8.0 12.9 0.00 0.00 0.00 71
20260503212612 16 265 14.5 12.9 0.00 0.00 0.00 70
20260503212412 16 279 4.8 12.9 0.00 0.00 0.00 70
20260503212210 16 270 8.0 11.3 0.00 0.00 0.00 71
20260503212006 16 272 11.3 11.3 0.00 0.00 0.00 71
20260503211806 16 281 4.8 11.3 0.00 0.00 0.00 71
20260503211604 16 277 6.4 11.3 0.00 0.00 0.00 72
20260503211402 16 274 4.8 11.3 0.00 0.00 0.00 71
20260503211200 16 240 1.6 12.9 0.00 0.00 0.00 72
20260503210757 16 275 3.2 11.3 0.00 0.00 0.00 72
20260503210553 16 271 11.3 11.3 0.00 0.00 0.00 72
20260503210353 16 268 8.0 11.3 0.00 0.00 0.00 73
20260503210151 16 240 0.0 12.9 0.00 0.00 0.00 73
20260503205949 16 282 8.0 12.9 0.00 0.00 0.00 73
20260503205747 15 254 6.4 16.1 0.00 0.00 0.00 73
20260503205546 16 293 11.3 16.1 0.00 0.00 0.00 74
20260503205141 15 275 1.6 11.3 0.00 0.00 0.00 74
20260503204939 15 257 8.0 11.3 0.00 0.00 0.00 73
20260503204536 15 265 8.0 16.1 0.00 0.00 0.00 75
20260503204334 15 268 8.0 16.1 0.00 0.00 0.00 74
20260503204132 15 265 14.5 16.1 0.00 0.00 0.00 74
20260503203930 15 255 11.3 16.1 0.00 0.00 0.00 74
20260503203728 15 244 8.0 16.1 0.00 0.00 0.00 75
20260503203526 15 260 6.4 16.1 0.00 0.00 0.00 75
20260503202920 15 261 11.3 20.9 0.00 0.00 0.00 75
20260503202719 15 272 9.7 20.9 0.00 0.00 0.00 75
20260503202517 15 261 11.3 20.9 0.00 0.00 0.00 75
20260503202315 15 260 17.7 19.3 0.00 0.00 0.00 75
20260503202113 15 271 6.4 19.3 0.00 0.00 0.00 75
20260503201507 15 258 12.9 20.9 0.00 0.00 0.00 75
20260503201305 15 251 14.5 17.7 0.00 0.00 0.00 75
20260503201104 15 254 12.9 17.7 0.00 0.00 0.00 75
20260503200902 15 255 11.3 17.7 0.00 0.00 0.00 75
20260503200700 15 257 6.4 17.7 0.00 0.00 0.00 75
20260503200458 15 277 11.3 17.7 0.00 0.00 0.00 75
20260503200256 15 300 9.7 16.1 0.00 0.00 0.00 75
20260503200054 15 257 11.3 16.1 0.00 0.00 0.00 75
20260503195852 16 281 11.3 16.1 0.00 0.00 0.00 74
20260503195650 16 265 11.3 14.5 0.00 0.00 0.00 74
20260503195448 16 255 4.8 14.5 0.00 0.00 0.00 73
20260503195044 16 264 8.0 8.0 0.00 0.00 0.00 72
20260503194843 16 274 9.7 8.0 0.00 0.00 0.00 71
20260503194641 16 286 0.0 0.0 0.00 0.00 0.00 71
20260503194439 16 267 1.6 0.0 0.00 0.00 0.00 72
20260503194236 16 306 0.0 4.8 0.00 0.00 0.00 73
20260503194035 16 306 0.0 4.8 0.00 0.00 0.00 73
20260503193833 16 306 0.0 4.8 0.00 0.00 0.00 73
20260503193631 16 306 0.0 11.3 0.00 0.00 0.00 73
20260503193429 16 319 0.0 11.3 0.00 0.00 0.00 72
20260503193227 16 291 8.0 14.5 0.00 0.00 0.00 72
20260503193026 16 289 6.4 14.5 0.00 0.00 0.00 73
20260503192824 16 299 6.4 14.5 0.00 0.00 0.00 72
20260503192622 16 296 6.4 0.0 0.00 0.00 0.00 72
20260503192420 16 278 0.0 0.0 0.00 0.00 0.00 74
20260503192218 16 278 0.0 12.9 0.00 0.00 0.00 74
20260503192016 16 278 0.0 12.9 0.00 0.00 0.00 74
20260503191814 16 278 0.0 11.3 0.00 0.00 0.00 74
20260503191610 16 298 6.4 11.3 0.00 0.00 0.00 74
20260503191410 16 270 11.3 11.3 0.00 0.00 0.00 74
20260503191208 16 274 9.7 11.3 0.00 0.00 0.00 73
20260503191005 16 286 8.0 11.3 0.00 0.00 0.00 75
20260503190805 15 302 3.2 9.7 0.00 0.00 0.00 75
20260503190603 15 271 9.7 9.7 0.00 0.00 0.00 76
20260503190401 15 292 9.7 9.7 0.00 0.00 0.00 75
20260503190159 15 320 1.6 11.3 0.00 0.00 0.00 76
20260503185957 15 288 8.0 11.3 0.00 0.00 0.00 76
20260503185756 15 291 8.0 9.7 0.00 0.00 0.00 76
20260503185553 15 5 1.6 9.7 0.00 0.00 0.00 77
20260503185351 15 300 6.4 9.7 0.00 0.00 0.00 77
20260503185149 15 354 0.0 4.8 0.00 0.00 0.00 80
20260503184947 15 354 0.0 4.8 0.00 0.00 0.00 80
20260503184745 15 354 0.0 8.0 0.00 0.00 0.00 80
20260503184544 15 2 0.0 8.0 0.00 0.00 0.00 79
20260503184341 15 305 4.8 8.0 0.00 0.00 0.00 78
20260503184139 15 299 3.2 3.2 0.00 0.00 0.00 79
20260503183938 15 344 0.0 3.2 0.00 0.00 0.00 80
20260503183735 15 7 1.6 6.4 0.00 0.00 0.00 81
20260503183534 15 289 0.0 6.4 0.00 0.00 0.00 81
20260503183130 15 307 4.8 0.0 0.00 0.00 0.00 79
20260503182928 15 292 0.0 0.0 0.00 0.00 0.00 81
20260503182726 15 258 0.0 1.6 0.00 0.00 0.00 82
20260503182524 15 258 0.0 1.6 0.00 0.00 0.00 81
20260503182323 15 258 0.0 8.0 0.00 0.00 0.00 82
20260503182121 15 258 0.0 8.0 0.00 0.00 0.00 81
20260503181917 15 258 0.0 8.0 0.00 0.00 0.00 80
20260503181717 15 286 4.8 0.0 0.00 0.00 0.00 80
20260503181515 15 265 3.2 0.0 0.00 0.00 0.00 82
20260503181313 15 310 0.0 4.8 0.00 0.00 0.00 82
20260503181111 15 310 0.0 4.8 0.00 0.00 0.00 82
20260503180909 15 310 0.0 4.8 0.00 0.00 0.00 82
20260503180707 15 310 0.0 0.0 0.00 0.00 0.00 82
20260503180505 15 298 4.8 0.0 0.00 0.00 0.00 81
20260503180302 15 182 0.0 3.2 0.00 0.00 0.00 81
20260503175900 15 182 0.0 3.2 0.00 0.00 0.00 83
20260503175658 15 208 1.6 4.8 0.00 0.00 0.00 81
20260503175456 15 216 0.0 4.8 0.00 0.00 0.00 83
20260503175254 15 223 3.2 4.8 0.00 0.00 0.00 83
20260503175052 15 113 3.2 4.8 0.00 0.00 0.00 85
20260503174850 15 64 0.0 4.8 0.00 0.00 0.00 85
20260503174648 14 192 1.6 6.4 0.00 0.00 0.00 84
20260503174447 14 106 0.0 6.4 0.00 0.00 0.00 86
20260503174042 14 45 0.0 3.2 0.00 0.00 0.00 86
20260503173841 14 123 4.8 3.2 0.00 0.00 0.00 87
20260503173639 14 135 0.0 3.2 0.00 0.00 0.00 88
20260503173435 14 135 0.0 3.2 0.00 0.00 0.00 88
20260503173235 14 91 0.0 3.2 0.00 0.00 0.00 90
20260503173033 14 122 1.6 3.2 0.00 0.00 0.00 90
20260503172831 13 90 1.6 3.2 0.00 0.00 0.00 90
20260503172630 13 84 0.0 3.2 0.00 0.00 0.00 92
20260503172428 13 84 0.0 3.2 0.00 0.00 0.00 92
20260503172024 13 171 0.0 3.2 0.00 0.00 0.00 93
20260503171822 13 187 1.6 4.8 0.00 0.00 0.00 93
20260503171620 13 282 0.0 4.8 0.00 0.00 0.00 93
20260503171418 13 282 0.0 4.8 0.00 0.00 0.00 93
20260503171216 13 285 0.0 3.2 0.00 0.00 0.00 93
20260503171014 13 285 3.2 3.2 0.00 0.00 0.00 93
20260503170812 13 286 0.0 6.4 0.00 0.00 0.00 93
20260503170610 13 289 0.0 6.4 0.00 0.00 0.00 94
20260503170408 13 289 0.0 6.4 0.00 0.00 0.00 94
20260503170206 13 289 0.0 8.0 0.00 0.00 0.00 94
20260503160109 13 264 6.4 11.3 0.00 0.00 0.00 94
20260503150818 13 278 0.0 8.0 0.00 0.00 0.00 95
20260503150618 13 282 1.6 8.0 0.00 0.00 0.00 95
20260503150416 13 282 3.2 8.0 0.00 0.00 0.00 95
20260503150214 13 286 3.2 9.7 0.00 0.00 0.00 95
20260503131231 13 300 0.0 0.0 0.00 0.00 0.00 96
20260503131029 13 300 0.0 0.0 0.00 0.00 0.00 96
20260503130828 13 300 0.0 0.0 0.00 0.00 0.00 96
20260503130626 13 300 0.0 0.0 0.00 0.00 0.00 96
20260503130424 13 300 0.0 0.0 0.00 0.00 0.00 96
20260503130222 13 300 0.0 0.0 0.00 0.00 0.00 96
20260503120124 13 288 1.6 6.4 0.00 0.00 0.00 96
20260503110635 13 260 0.0 0.0 0.00 0.00 0.00 97
20260503110431 13 260 0.0 0.0 0.00 0.00 0.00 96
20260503100217 13 260 0.0 0.0 0.00 0.00 0.00 97
20260503100133 13 260 0.0 0.0 0.00 0.00 0.00 97
20260503090439 13 265 8.0 11.3 0.00 0.00 0.00 96
20260503090237 13 277 8.0 9.7 0.00 0.00 0.00 96
20260503081552 14 267 8.0 8.0 0.00 0.00 0.00 95
20260503081352 14 281 3.2 8.0 0.00 0.00 0.00 95
20260503080746 14 296 3.2 9.7 0.00 0.00 0.00 95
20260503080542 14 281 1.6 9.7 0.00 0.00 0.00 95
20260503080342 14 295 4.8 9.7 0.00 0.00 0.00 95
20260503080140 13 284 4.8 11.3 0.00 0.00 0.00 95
20260503072708 14 277 11.3 9.7 0.00 0.00 0.00 93
20260503072506 14 279 6.4 9.7 0.00 0.00 0.00 93
20260503072305 14 277 4.8 8.0 0.00 0.00 0.00 93
20260503072102 14 281 9.7 8.0 0.00 0.00 0.00 93
20260503071657 14 264 6.4 11.3 0.00 0.00 0.00 93
20260503071256 14 279 6.4 9.7 0.00 0.00 0.00 93
20260503071052 14 271 9.7 9.7 0.00 0.00 0.00 93
20260503070851 14 299 6.4 9.7 0.00 0.00 0.00 93
20260503070649 14 275 4.8 11.3 0.00 0.00 0.00 93
20260503070245 14 293 8.0 9.7 0.00 0.00 0.00 93
20260503060148 15 267 0.0 0.0 0.00 0.00 0.00 91
20260503054735 15 267 0.0 0.0 0.00 0.00 0.00 91
20260503054533 15 267 0.0 0.0 0.00 0.00 0.00 91
20260503054129 15 267 0.0 0.0 0.00 0.00 0.00 91
20260503053927 15 267 0.0 0.0 0.00 0.00 0.00 91
20260503053725 15 267 0.0 0.0 0.00 0.00 0.00 91
20260503053523 15 267 0.0 0.0 0.00 0.00 0.00 91
20260503053120 15 267 0.0 0.0 0.00 0.00 0.00 91
20260503052716 15 267 0.0 0.0 0.00 0.00 0.00 90
20260503052514 15 267 0.0 0.0 0.00 0.00 0.00 90
20260503052310 15 267 0.0 0.0 0.00 0.00 0.00 90
20260503051908 15 267 0.0 0.0 0.00 0.00 0.00 90
20260503051504 15 267 0.0 0.0 0.00 0.00 0.00 90
20260503051302 15 267 0.0 0.0 0.00 0.00 0.00 90
20260503051101 15 267 0.0 0.0 0.00 0.00 0.00 90
20260503050859 15 267 0.0 0.0 0.00 0.00 0.00 90
20260503050454 15 267 0.0 0.0 0.00 0.00 0.00 90
20260503050253 15 267 0.0 0.0 0.00 0.00 0.00 90
20260503050051 15 267 0.0 0.0 0.00 0.00 0.00 90
20260503045849 15 267 0.0 0.0 0.00 0.00 0.00 90
20260503045445 15 267 0.0 0.0 0.00 0.00 0.00 90
20260503045244 15 267 0.0 0.0 0.00 0.00 0.00 90
20260503045042 15 267 0.0 0.0 0.00 0.00 0.00 90
20260503044840 15 267 0.0 0.0 0.00 0.00 0.00 90
20260503044642 15 267 0.0 0.0 0.00 0.00 0.00 90
20260503044436 15 267 0.0 0.0 0.00 0.00 0.00 90
20260503044234 15 267 0.0 0.0 0.00 0.00 0.00 90
20260503044030 15 267 0.0 0.0 0.00 0.00 0.00 90
20260503043830 15 267 0.0 0.0 0.00 0.00 0.00 90
20260503043628 15 267 0.0 0.0 0.00 0.00 0.00 90
20260503043426 15 267 0.0 0.0 0.00 0.00 0.00 90
20260503043224 15 267 0.0 0.0 0.00 0.00 0.00 90
20260503043022 15 267 0.0 0.0 0.00 0.00 0.00 90
20260503042821 15 267 0.0 0.0 0.00 0.00 0.00 90
20260503042415 15 267 0.0 0.0 0.00 0.00 0.00 90
20260503042013 15 267 0.0 0.0 0.00 0.00 0.00 90
20260503041811 15 267 0.0 0.0 0.00 0.00 0.00 90
20260503041609 15 267 0.0 0.0 0.00 0.00 0.00 90
20260503041205 15 267 0.0 0.0 0.00 0.00 0.00 90
20260503041003 15 267 0.0 0.0 0.00 0.00 0.00 90
20260503040800 15 267 0.0 0.0 0.00 0.00 0.00 90
20260503040600 15 267 0.0 0.0 0.00 0.00 0.00 89
20260503040358 15 267 0.0 0.0 0.00 0.00 0.00 90
20260503035348 15 281 4.8 8.0 0.00 0.00 0.00 90
20260503035146 15 288 3.2 11.3 0.00 0.00 0.00 90
20260503034944 15 293 6.4 11.3 0.00 0.00 0.00 90
20260503034540 15 275 8.0 11.3 0.00 0.00 0.00 90
20260503033935 15 284 6.4 11.3 0.00 0.00 0.00 89
20260503033531 15 286 3.2 12.9 0.00 0.00 0.00 88
20260503033329 15 275 8.0 12.9 0.00 0.00 0.00 88
20260503033127 15 281 9.7 12.9 0.00 0.00 0.00 88
20260503032925 15 268 8.0 12.9 0.00 0.00 0.00 88
20260503032723 15 278 9.7 14.5 0.00 0.00 0.00 88
20260503032520 15 284 9.7 14.5 0.00 0.00 0.00 88
20260503032116 15 277 12.9 12.9 0.00 0.00 0.00 87
20260503031914 15 267 11.3 12.9 0.00 0.00 0.00 87
20260503031714 15 293 4.8 16.1 0.00 0.00 0.00 86
20260503031512 15 270 9.7 16.1 0.00 0.00 0.00 86
20260503031308 15 270 9.7 16.1 0.00 0.00 0.00 86
20260503031108 15 279 11.3 16.1 0.00 0.00 0.00 85
20260503030906 15 281 11.3 16.1 0.00 0.00 0.00 86
20260503030704 16 274 14.5 14.5 0.00 0.00 0.00 85
20260503030503 16 270 9.7 14.5 0.00 0.00 0.00 85
20260503030259 16 267 11.3 14.5 0.00 0.00 0.00 85
20260503030059 16 291 11.3 14.5 0.00 0.00 0.00 84